Regional Weather Roundup
Issued by NWS Little Rock, AR

Home | Current Version | Previous Version | Graphics & Text | Print | Product List | Glossary On
Versions: 1 2 3 4 5 6 7 8 9 10 11 12 13 14 15 16 17 18 19 20 21 22 23 24 25 26 27
000
ASUS44 KLZK 261405
RWRLZK

WEATHER ROUNDUP FOR ARKANSAS
NATIONAL WEATHER SERVICE LITTLE ROCK AR
900 AM CDT THU MAY 26 2016

NOTE: "FAIR" INDICATES FEW OR NO CLOUDS BELOW 12,000 FEET WITH NO
SIGNIFICANT WEATHER AND/OR OBSTRUCTIONS TO VISIBILITY.

ARZ001-003-010-029-261500-
NORTHWEST ARKANSAS

CITY           SKY/WX    TMP DP  RH WIND       PRES   REMARKS
FAYETTEVILLE   PTSUNNY   77  73  87 S12       29.96S
FORT SMITH     CLOUDY    78  70  76 S7        29.94F
HARRISON       CLOUDY    77  73  87 CALM      30.00S
BENTONVILLE    CLOUDY    77  70  78 SW7       29.97F
ROGERS           N/A     79  72  78 S13       29.98F
SILOAM SPGS    PTSUNNY   79  66  65 S12       29.96F
HIGHFILL       CLOUDY    77  73  87 S6        29.96S
SPRINGDALE     CLOUDY    77  72  83 S15       29.99S
$$

ARZ004-005-016-261500-
NORTH CENTRAL ARKANSAS

CITY           SKY/WX    TMP DP  RH WIND       PRES   REMARKS
BATESVILLE     CLOUDY    75  72  88 S3        30.02R
FLIPPIN        PTSUNNY  N/A N/A N/A E5        29.96S
MTN HOME       CLOUDY    76  73  91 SE5       29.99R
$$

ARZ040-041-261500-
WEST CENTRAL ARKANSAS

CITY           SKY/WX    TMP DP  RH WIND       PRES   REMARKS
MENA           CLOUDY    79  73  83 SW8       29.99S
MOUNT IDA      PTSUNNY   78  70  76 VRB6      29.97F
$$

ARZ009-017-025-026-028-261500-
NORTHEAST ARKANSAS

CITY           SKY/WX    TMP DP  RH WIND       PRES   REMARKS
CORNING          N/A     73  73 100 S12       30.03S
JONESBORO      CLOUDY    75  71  87 SW9       30.04R
NEWPORT        CLOUDY    75  75 100 S6        30.04R
WALNUT RIDGE   PTSUNNY   73  70  88 S9        30.03R
BLYTHEVILLE    PTSUNNY   78  72  81 S14G20    30.06R
NW BLYTHEVILLE PTSUNNY   79  72  78 SW16G23   30.05
$$

ARZ022-023-033-042-044-261500-
CENTRAL ARKANSAS

CITY           SKY/WX    TMP DP  RH WIND       PRES   REMARKS
LITTLE ROCK    CLOUDY    79  72  79 S9        30.01S
N LITTLE ROCK    N/A     76  71  85 SW7       29.99R
JACKSONVILLE   CLOUDY    78  73  84 S8        30.00S
SEARCY         CLOUDY    77  73  87 S8        30.02S
HOT SPRINGS    PTSUNNY   78  71  79 SW8       30.00S
RUSSELLVILLE   MOSUNNY   80  73  79 VRB7      29.96F
CLINTON        PTSUNNY   79  75  89 S5        29.99F
$$

ARZ036-261500-
EAST ARKANSAS

CITY           SKY/WX    TMP DP  RH WIND       PRES   REMARKS
WEST MEMPHIS   PTSUNNY   78  72  81 S12G21    30.04S
$$

ARZ050-053-066-070-073-261500-
SOUTHWEST ARKANSAS

CITY           SKY/WX    TMP DP  RH WIND       PRES   REMARKS
ARKADELPHIA    PTSUNNY   79  79 100 S9          N/A
CAMDEN         CLOUDY    81  70  69 S13G18    30.01S
TEXARKANA      CLOUDY    78  73  84 S8        29.99R
EL DORADO      PTSUNNY   79  73  82 S8        30.02F
DE QUEEN       CLOUDY    77  73  87 SW6       29.97R
$$

ARZ056-057-069-261500-
SOUTHEAST ARKANSAS

CITY           SKY/WX    TMP DP  RH WIND       PRES   REMARKS
PINE BLUFF     MOSUNNY   79  71  76 S16       30.03S
STUTTGART      CLOUDY    81  70  69 S17       30.03S
MONTICELLO     CLOUDY    80  73  79 S10       30.04F

$$






USA.gov is the U.S. government's official web portal to all federal, state and local government web resources and services.